[[{"header":{"parameterUnit":"m.s-1","parameterCategory":2,"la1":30.2991,"la2":30.254,"lo1":-89.0895,"lo2":-89.0444,"dy":0.0017,"dx":0.0017,"nx":28,"ny":28,"refTime":"2024-10-12T03:00:00:Z","depth":"0","parameterNumber":2,"parameterNumberName":"U-component_of_CURRENTS"},"data":[0,0,0,0,0,0,0,0,0,0,0,0,0,0,0,0,0,0,0,0,0,0,0,0,0,0,0,0,0,0,0,0,0,0,0,0,0,0,0,0,0,0,0,0,0,0,0,0,0,0,0,0,0,0,0,0,0,0,-0.2455,-0.2456,0,-0.247,-0.247,-0.247,-0.2451,-0.245,-0.245,-0.245,-0.2357,-0.2355,-0.2353,0,0,0,0,0,0,0,0,0,0,0,0,0,-0.232,-0.2323,-0.2455,-0.2456,-0.2457,-0.247,-0.247,-0.2469,-0.2451,-0.245,-0.245,-0.245,-0.2358,-0.2356,-0.2353,0,0,0,0,0,0,0,0,0,0,0,0,0,-0.2358,-0.2324,-0.2455,-0.2452,-0.2452,-0.247,-0.247,-0.2469,-0.2451,-0.245,-0.245,-0.2449,-0.2359,-0.2356,-0.2353,-0.2342,0,0,-0.2343,-0.2341,0,0,0,0,0,0,0,0,-0.2356,-0.2362,-0.2452,-0.2452,-0.2452,-0.2461,-0.2388,-0.2423,-0.2451,-0.2447,-0.245,-0.2449,-0.2385,-0.238,-0.238,-0.2338,-0.2334,-0.2342,-0.2341,-0.2339,-0.2338,0,0,0,0,0,0,0,-0.2353,-0.2361,-0.2457,-0.2452,-0.2453,-0.2418,-0.2423,-0.2395,-0.2414,-0.2447,-0.2447,-0.2455,-0.2384,-0.2383,-0.2377,-0.2333,-0.2343,-0.234,-0.2338,-0.2336,-0.2288,-0.2289,0,0,0,0,0,0,-0.2366,-0.236,-0.2457,-0.2458,-0.2406,-0.2422,-0.2427,-0.2456,-0.2416,-0.2412,-0.2455,-0.2454,-0.2389,-0.2381,-0.2373,-0.2381,-0.2339,-0.2336,-0.2334,-0.2288,-0.2288,-0.2289,0,0,0,0,0,0,-0.2363,-0.2375,-0.2456,-0.241,-0.2419,-0.2426,-0.2457,-0.2456,-0.2461,-0.2424,-0.2417,-0.2462,-0.2388,-0.2378,-0.2359,-0.2376,-0.2335,-0.2332,-0.2287,-0.2288,-0.2289,-0.2381,0,0,0,0,0,0,-0.2359,-0.2374,-0.2392,-0.2412,-0.2422,-0.2482,-0.2458,-0.2457,-0.2469,-0.2467,-0.2427,-0.2418,-0.2387,-0.2364,-0.2356,-0.2371,-0.2329,-0.2286,-0.2287,-0.2289,-0.2377,-0.2385,-0.2392,0,0,0,0,0,-0.2355,-0.239,-0.2394,-0.2405,-0.245,-0.2484,-0.2485,-0.2484,-0.247,-0.2483,-0.2453,-0.242,-0.2366,-0.2363,-0.2352,-0.2367,-0.2285,-0.2287,-0.2288,-0.2374,-0.2384,-0.2392,0,0,0,0,0,0,-0.2332,-0.2393,-0.2396,-0.2446,-0.2468,-0.2482,-0.2495,-0.2491,-0.248,-0.247,-0.2428,-0.2418,-0.241,-0.2374,-0.2371,-0.2356,-0.232,-0.232,-0.2388,-0.2397,-0.2404,-0.2418,-0.2326,0,0,0,0,0,-0.234,-0.2386,-0.2424,-0.2459,-0.2477,-0.2485,-0.2495,-0.2496,-0.2493,-0.2488,-0.2459,-0.2426,-0.2408,-0.2391,-0.2367,-0.2356,-0.2341,-0.2358,-0.2365,-0.2372,-0.2376,-0.2379,-0.2387,-0.2294,-0.2294,-0.2294,0,0,-0.2336,-0.2377,-0.2399,-0.2458,-0.2472,-0.2507,-0.2489,-0.2515,-0.2532,-0.2477,-0.2479,-0.2452,-0.2412,-0.2407,-0.2399,-0.2378,-0.2393,-0.2373,-0.238,-0.238,-0.2381,-0.2391,-0.2399,-0.2295,-0.2295,-0.2295,0,0,-0.2362,-0.2395,-0.2445,-0.2474,-0.2514,-0.2521,-0.2534,-0.2553,-0.2551,-0.2553,-0.2521,-0.2509,-0.2469,-0.2455,-0.244,-0.2471,-0.2436,-0.2457,-0.25,-0.2504,-0.2512,-0.2519,-0.2527,-0.2534,-0.2456,-0.2456,-0.2456,0,-0.2349,-0.2426,-0.2458,-0.2512,-0.2532,-0.2534,-0.2572,-0.258,-0.2583,-0.2582,-0.2562,-0.253,-0.2497,-0.2502,-0.2512,-0.2489,-0.2484,-0.2473,-0.2516,-0.2522,-0.2527,-0.2534,-0.254,-0.246,-0.246,-0.2459,-0.2459,0,-0.2419,-0.2472,-0.2502,-0.2573,-0.2595,-0.2629,-0.2649,-0.2659,-0.2647,-0.2646,-0.2647,-0.2612,-0.259,-0.2583,-0.2554,-0.2577,-0.256,-0.2532,-0.2499,-0.2543,-0.2546,-0.2551,-0.2467,-0.2465,-0.2464,-0.2463,0,0,-0.2396,-0.2527,-0.2534,-0.2571,-0.2628,-0.265,-0.2684,-0.2711,-0.2725,-0.272,-0.2736,-0.2714,-0.2691,-0.2673,-0.2641,-0.2643,-0.2681,-0.2606,-0.2604,-0.2624,-0.2696,-0.2664,-0.2666,-0.2661,-0.2662,-0.2663,-0.2689,0,-0.243,-0.2544,-0.2593,-0.2659,-0.2706,-0.2722,-0.2753,-0.2771,-0.2769,-0.2783,-0.2765,-0.2761,-0.2727,-0.2714,-0.2718,-0.2682,-0.2696,-0.2677,-0.2641,-0.264,-0.2615,-0.2671,-0.2442,-0.2444,-0.2694,-0.2695,-0.2695,0,-0.2474,-0.2543,-0.2633,-0.2708,-0.2727,-0.2757,-0.2787,-0.2815,-0.2839,-0.2839,-0.2843,-0.2823,-0.2828,-0.2789,-0.278,-0.2768,-0.2744,-0.2723,-0.2723,-0.2662,-0.2617,-0.2435,-0.2443,-0.2272,-0.2702,-0.2702,-0.2701,0,-0.2443,-0.2557,-0.2626,-0.2656,-0.2747,-0.2767,-0.2793,-0.2823,-0.2844,-0.2869,-0.2879,-0.2884,-0.2873,-0.286,-0.2815,-0.2797,-0.2806,-0.2771,-0.2731,-0.2728,-0.2509,-0.2486,-0.2351,-0.2781,-0.2781,-0.2781,-0.2781,0,-0.2463,-0.2506,-0.2618,-0.2656,-0.2706,-0.2757,-0.2795,-0.2824,-0.2864,-0.2892,-0.2898,-0.2915,-0.2887,-0.2883,-0.2848,-0.281,-0.2833,-0.2755,-0.2737,-0.2536,-0.2516,-0.2338,-0.2347,-0.2782,-0.2782,-0.2782,-0.2782,0,-0.2423,-0.251,-0.2582,-0.2678,-0.2704,-0.2729,-0.2799,-0.2827,-0.2864,-0.2902,-0.2912,-0.2937,-0.2934,-0.2914,-0.2887,-0.2839,-0.2726,-0.2793,-0.2567,-0.2524,-0.2326,-0.2352,-0.2359,-0.2314,-0.2754,-0.2753,-0.2753,0,-0.2418,-0.2462,-0.2579,-0.262,-0.2663,-0.2714,-0.2755,-0.2815,-0.2846,-0.2912,-0.293,-0.2948,-0.2939,-0.2904,-0.2808,-0.2754,-0.2706,-0.2537,-0.2467,-0.2299,-0.2314,-0.2377,-0.2342,-0.2212,-0.2207,-0.2203,-0.22,0,-0.2382,-0.243,-0.2496,-0.2587,-0.2641,-0.27,-0.2758,-0.2782,-0.2852,-0.2881,-0.2911,-0.2907,-0.2857,-0.267,-0.2605,-0.2554,-0.2402,-0.2458,-0.2311,-0.1921,-0.195,-0.1898,-0.2232,-0.2165,-0.2168,-0.2171,-0.2173,-0.2174,-0.233,-0.2369,-0.2466,-0.2536,-0.2607,-0.2658,-0.2645,-0.2705,-0.2733,-0.2677,-0.2797,-0.2603,-0.2406,-0.2266,-0.2259,-0.1969,-0.221,-0.1832,-0.1893,-0.1984,-0.1891,-0.2181,-0.2085,-0.2088,-0.209,-0.2093,-0.2095,0,-0.226,-0.2329,-0.2406,-0.2486,-0.252,-0.2579,-0.2621,-0.2555,-0.252,-0.2388,-0.2354,-0.192,-0.1754,-0.1584,-0.1369,-0.1326,-0.1342,-0.1314,-0.1257,-0.1265,-0.1471,-0.1386,-0.1097,-0.1097,-0.1097,-0.1098,-0.1098,-0.1098,-0.2226,-0.2286,-0.2341,-0.2374,-0.2411,-0.2366,-0.2348,-0.225,-0.2083,-0.1701,-0.1314,-0.1149,-0.093,-0.0883,-0.0761,-0.0791,-0.0788,-0.0845,-0.0979,-0.0967,-0.1016,-0.1062,-0.0973,-0.0604,-0.0604,-0.0619,-0.0619,-0.0619]},{"header":{"parameterUnit":"m.s-1","parameterCategory":2,"la1":30.2991,"la2":30.254,"lo1":-89.0895,"lo2":-89.0444,"dy":0.0017,"dx":0.0017,"nx":28,"ny":28,"refTime":"2024-10-12T03:00:00:Z","depth":"0","parameterNumber":3,"parameterNumberName":"V-component_of_CURRENTS"},"data":[0,0,0,0,0,0,0,0,0,0,0,0,0,0,0,0,0,0,0,0,0,0,0,0,0,0,0,0,0,0,0,0,0,0,0,0,0,0,0,0,0,0,0,0,0,0,0,0,0,0,0,0,0,0,0,0,0,0,-0.0992,-0.0992,0,-0.0908,-0.0907,-0.0906,-0.0857,-0.0857,-0.0857,-0.0857,-0.0717,-0.0713,-0.071,0,0,0,0,0,0,0,0,0,0,0,0,0,-0.1071,-0.107,-0.0992,-0.0991,-0.099,-0.0908,-0.0907,-0.0906,-0.0857,-0.0857,-0.0857,-0.0857,-0.0718,-0.0714,-0.0709,0,0,0,0,0,0,0,0,0,0,0,0,0,-0.1017,-0.107,-0.0993,-0.0956,-0.0952,-0.0909,-0.0907,-0.0906,-0.0858,-0.0857,-0.0857,-0.0857,-0.0719,-0.0714,-0.0709,-0.0682,0,0,-0.0693,-0.069,0,0,0,0,0,0,0,0,-0.102,-0.1014,-0.0963,-0.0959,-0.0954,-0.0893,-0.0883,-0.0828,-0.0858,-0.0893,-0.0857,-0.0857,-0.0771,-0.0761,-0.0747,-0.0675,-0.0669,-0.0692,-0.0689,-0.0687,-0.0685,0,0,0,0,0,0,0,-0.1024,-0.1017,-0.0959,-0.0962,-0.0956,-0.093,-0.0923,-0.0873,-0.0834,-0.089,-0.0887,-0.0877,-0.0768,-0.0752,-0.0743,-0.0667,-0.0692,-0.0687,-0.0684,-0.0682,-0.0565,-0.0565,0,0,0,0,0,0,-0.1037,-0.1021,-0.0962,-0.0957,-0.0987,-0.0929,-0.0921,-0.0913,-0.0835,-0.0824,-0.0878,-0.0875,-0.0761,-0.0749,-0.0738,-0.0717,-0.0687,-0.0682,-0.0678,-0.0565,-0.0565,-0.0565,0,0,0,0,0,0,-0.1039,-0.1032,-0.0965,-0.0987,-0.0976,-0.0929,-0.092,-0.0911,-0.0897,-0.0826,-0.0813,-0.0872,-0.0761,-0.0745,-0.0703,-0.071,-0.0679,-0.0674,-0.0565,-0.0565,-0.0565,-0.0664,0,0,0,0,0,0,-0.1041,-0.1034,-0.1036,-0.0988,-0.0976,-0.0945,-0.092,-0.091,-0.0892,-0.0888,-0.0817,-0.0804,-0.0759,-0.0711,-0.0697,-0.0702,-0.067,-0.0565,-0.0565,-0.0565,-0.0661,-0.0668,-0.0674,0,0,0,0,0,-0.1045,-0.1053,-0.1036,-0.1029,-0.0979,-0.0946,-0.0937,-0.0902,-0.0892,-0.0888,-0.0845,-0.0806,-0.0702,-0.0707,-0.0691,-0.0695,-0.0565,-0.0565,-0.0565,-0.0658,-0.0667,-0.0674,0,0,0,0,0,0,-0.1095,-0.1047,-0.1028,-0.1023,-0.0988,-0.0938,-0.0933,-0.0908,-0.0872,-0.0869,-0.0807,-0.0791,-0.0756,-0.0709,-0.0716,-0.066,-0.0627,-0.0624,-0.0703,-0.071,-0.0716,-0.0748,-0.0666,0,0,0,0,0,-0.1106,-0.1096,-0.1046,-0.1044,-0.1028,-0.0982,-0.0966,-0.094,-0.09,-0.0885,-0.0835,-0.0784,-0.0743,-0.0716,-0.0669,-0.0637,-0.0629,-0.0628,-0.0634,-0.064,-0.0654,-0.0653,-0.0662,-0.0566,-0.0566,-0.0566,0,0,-0.1127,-0.1098,-0.1094,-0.1053,-0.1025,-0.1012,-0.0972,-0.0951,-0.0945,-0.0874,-0.0851,-0.0803,-0.074,-0.0709,-0.0689,-0.0672,-0.0666,-0.064,-0.0646,-0.0657,-0.0655,-0.0664,-0.0673,-0.0566,-0.0566,-0.0566,0,0,-0.1159,-0.1137,-0.1135,-0.111,-0.1068,-0.104,-0.1038,-0.0986,-0.0968,-0.0936,-0.0891,-0.0856,-0.0779,-0.0748,-0.0721,-0.0732,-0.0701,-0.0706,-0.0762,-0.0762,-0.0771,-0.0779,-0.0802,-0.0811,-0.0709,-0.0709,-0.0709,0,-0.1188,-0.1175,-0.1131,-0.1122,-0.1111,-0.1058,-0.1059,-0.1034,-0.0977,-0.0971,-0.094,-0.086,-0.0803,-0.0785,-0.0787,-0.0749,-0.0751,-0.0743,-0.0775,-0.0782,-0.0788,-0.081,-0.0818,-0.0714,-0.0713,-0.0712,-0.0712,0,-0.1212,-0.1204,-0.1204,-0.1176,-0.1159,-0.1153,-0.1111,-0.1099,-0.1069,-0.1039,-0.101,-0.0941,-0.0896,-0.087,-0.0829,-0.084,-0.083,-0.0789,-0.0765,-0.0804,-0.0824,-0.0831,-0.072,-0.0719,-0.0717,-0.0716,0,0,-0.1271,-0.1229,-0.123,-0.1228,-0.1188,-0.118,-0.1179,-0.1162,-0.1172,-0.1114,-0.1121,-0.1051,-0.1015,-0.0982,-0.0927,-0.0921,-0.0965,-0.0879,-0.0876,-0.0921,-0.0991,-0.0884,-0.0881,-0.0932,-0.0933,-0.0934,-0.0996,0,-0.1304,-0.1302,-0.1273,-0.1287,-0.1283,-0.1251,-0.126,-0.1241,-0.1211,-0.1203,-0.1147,-0.1119,-0.1057,-0.1036,-0.1025,-0.0965,-0.0985,-0.0954,-0.0929,-0.0929,-0.0844,-0.0885,-0.0727,-0.0759,-0.1003,-0.1004,-0.1005,0,-0.1334,-0.1328,-0.1339,-0.1341,-0.1341,-0.1348,-0.1359,-0.1355,-0.1335,-0.1312,-0.1282,-0.1227,-0.12,-0.1141,-0.1105,-0.1088,-0.1061,-0.1025,-0.1026,-0.0896,-0.0834,-0.0751,-0.0762,-0.0569,-0.1015,-0.1015,-0.1014,0,-0.1383,-0.138,-0.1394,-0.1391,-0.1382,-0.14,-0.1404,-0.1392,-0.1397,-0.1378,-0.1374,-0.1331,-0.1299,-0.1261,-0.1168,-0.1146,-0.1136,-0.1091,-0.099,-0.0983,-0.0826,-0.0802,-0.0659,-0.1107,-0.1107,-0.1107,-0.1107,0,-0.1425,-0.1437,-0.1421,-0.1429,-0.1473,-0.1449,-0.1491,-0.1488,-0.1482,-0.1494,-0.1431,-0.1425,-0.1326,-0.1287,-0.1222,-0.1119,-0.1182,-0.1017,-0.0989,-0.0855,-0.0834,-0.0639,-0.0596,-0.1109,-0.1109,-0.1108,-0.1108,0,-0.1465,-0.1453,-0.1472,-0.1479,-0.1491,-0.1521,-0.1545,-0.1572,-0.1556,-0.1569,-0.1565,-0.1504,-0.1439,-0.1349,-0.1277,-0.117,-0.0977,-0.1059,-0.0915,-0.0867,-0.0547,-0.0517,-0.0444,-0.0355,-0.095,-0.0948,-0.0946,0,-0.1481,-0.149,-0.1512,-0.1541,-0.1548,-0.1585,-0.1619,-0.1614,-0.1626,-0.1614,-0.1622,-0.1564,-0.1495,-0.1341,-0.1144,-0.1012,-0.0922,-0.0796,-0.0707,-0.0513,-0.0463,-0.0476,-0.0408,-0.0562,-0.0557,-0.0553,-0.055,0,-0.1509,-0.1514,-0.1532,-0.1596,-0.1637,-0.1674,-0.1705,-0.172,-0.171,-0.1692,-0.1659,-0.1603,-0.1417,-0.1144,-0.0936,-0.0837,-0.0609,-0.0706,-0.0535,-0.0172,-0.0151,-0.0054,-0.0565,-0.0514,-0.0517,-0.052,-0.0522,-0.0523,-0.1526,-0.1557,-0.1588,-0.1652,-0.1702,-0.1737,-0.1719,-0.1724,-0.1711,-0.1552,-0.1599,-0.1317,-0.1055,-0.0705,-0.0624,-0.0218,-0.0365,-0.0054,-0.0052,-0.0098,0.006,-0.0378,-0.0262,-0.0264,-0.0266,-0.0267,-0.0269,0,-0.1544,-0.1583,-0.1647,-0.1705,-0.1751,-0.1763,-0.1756,-0.1655,-0.157,-0.1337,-0.1201,-0.0686,-0.0385,-0.0116,0.03,0.047,0.0456,0.0541,0.0585,0.0609,0.0227,0.0328,0.0617,0.0616,0.0616,0.0616,0.0616,0.0616,-0.1553,-0.1615,-0.1656,-0.1732,-0.1759,-0.1705,-0.1657,-0.1462,-0.1221,-0.0712,-0.0245,0.0032,0.0375,0.0689,0.1038,0.1052,0.115,0.1111,0.1095,0.09,0.0845,0.0793,0.0906,0.131,0.1311,0.1541,0.1544,0.1546]}],[{"header":{"parameterUnit":"m.s-1","parameterCategory":2,"la1":30.2991,"la2":30.254,"lo1":-89.0895,"lo2":-89.0444,"dy":0.0017,"dx":0.0017,"nx":28,"ny":28,"refTime":"2024-10-12T03:00:00:Z","depth":"2","parameterNumber":2,"parameterNumberName":"U-component_of_CURRENTS"},"data":[0,0,0,0,0,0,0,0,0,0,0,0,0,0,0,0,0,0,0,0,0,0,0,0,0,0,0,0,0,0,0,0,0,0,0,0,0,0,0,0,0,0,0,0,0,0,0,0,0,0,0,0,0,0,0,0,0,0,-0.1486,-0.1487,0,-0.1494,-0.1494,-0.1494,-0.1506,-0.1507,-0.1507,-0.1508,-0.1585,-0.1586,-0.1588,0,0,0,0,0,0,0,0,0,0,0,0,0,-0.1445,-0.1446,-0.1486,-0.1487,-0.1487,-0.1494,-0.1494,-0.1494,-0.1506,-0.1507,-0.1507,-0.1508,-0.1584,-0.1586,-0.1588,0,0,0,0,0,0,0,0,0,0,0,0,0,-0.1456,-0.1446,-0.1486,-0.1497,-0.1498,-0.1494,-0.1494,-0.1494,-0.1506,-0.1507,-0.1507,-0.1508,-0.1584,-0.1586,-0.1588,-0.1587,0,0,-0.1595,-0.1596,0,0,0,0,0,0,0,0,-0.1456,-0.1457,-0.1495,-0.1496,-0.1497,-0.1503,-0.1508,-0.1529,-0.1506,-0.1499,-0.1508,-0.1508,-0.1565,-0.1569,-0.1563,-0.1591,-0.1594,-0.1596,-0.1597,-0.1598,-0.1599,0,0,0,0,0,0,0,-0.1455,-0.1457,-0.1486,-0.1495,-0.1497,-0.1488,-0.1491,-0.1511,-0.1527,-0.15,-0.1502,-0.1507,-0.1566,-0.1561,-0.1565,-0.1595,-0.1596,-0.1598,-0.1599,-0.16,-0.1611,-0.161,0,0,0,0,0,0,-0.1462,-0.1456,-0.1486,-0.1487,-0.1482,-0.1489,-0.1491,-0.1498,-0.1525,-0.153,-0.1507,-0.1508,-0.1556,-0.1563,-0.1568,-0.1583,-0.1598,-0.16,-0.1602,-0.1612,-0.1611,-0.161,0,0,0,0,0,0,-0.1461,-0.1464,-0.1486,-0.1474,-0.1477,-0.1489,-0.1496,-0.1497,-0.1503,-0.153,-0.1536,-0.1513,-0.1557,-0.1565,-0.162,-0.1586,-0.1601,-0.1604,-0.1614,-0.1612,-0.1611,-0.1603,0,0,0,0,0,0,-0.1459,-0.1464,-0.1453,-0.1475,-0.1478,-0.149,-0.1495,-0.1497,-0.1506,-0.1508,-0.1537,-0.1544,-0.1559,-0.1616,-0.1622,-0.1589,-0.1605,-0.1615,-0.1613,-0.1611,-0.1605,-0.1601,-0.1598,0,0,0,0,0,-0.1458,-0.1462,-0.1452,-0.1455,-0.1469,-0.1491,-0.1491,-0.15,-0.1506,-0.1507,-0.1548,-0.1544,-0.1604,-0.162,-0.1626,-0.1593,-0.1616,-0.1614,-0.1611,-0.1606,-0.1602,-0.1598,0,0,0,0,0,0,-0.1436,-0.1464,-0.1455,-0.1463,-0.1473,-0.1494,-0.15,-0.1503,-0.153,-0.1541,-0.1565,-0.1576,-0.1593,-0.1601,-0.1617,-0.1584,-0.1594,-0.1593,-0.1587,-0.1584,-0.1581,-0.1583,-0.1607,0,0,0,0,0,-0.1425,-0.1439,-0.1454,-0.1459,-0.1469,-0.148,-0.1485,-0.1494,-0.1527,-0.1537,-0.1563,-0.1578,-0.1582,-0.1597,-0.1605,-0.1617,-0.163,-0.1585,-0.1582,-0.1579,-0.1582,-0.1578,-0.1575,-0.1602,-0.1602,-0.1602,0,0,-0.1405,-0.1435,-0.143,-0.1455,-0.1467,-0.1472,-0.1485,-0.1506,-0.1506,-0.1544,-0.1567,-0.1578,-0.1583,-0.1587,-0.1591,-0.1598,-0.1582,-0.1576,-0.1574,-0.1579,-0.1575,-0.1573,-0.1571,-0.16,-0.16,-0.1601,0,0,-0.1396,-0.1415,-0.1416,-0.1434,-0.1461,-0.1474,-0.1482,-0.1508,-0.1515,-0.1536,-0.1551,-0.1563,-0.1576,-0.1575,-0.1572,-0.1557,-0.1564,-0.1535,-0.1529,-0.1524,-0.1523,-0.1521,-0.1556,-0.1558,-0.1535,-0.1535,-0.1535,0,-0.137,-0.1384,-0.1416,-0.1433,-0.1449,-0.1477,-0.1479,-0.1487,-0.1525,-0.1538,-0.1542,-0.1553,-0.156,-0.1558,-0.1545,-0.1549,-0.1565,-0.1548,-0.1522,-0.1521,-0.152,-0.1556,-0.1558,-0.1534,-0.1534,-0.1534,-0.1534,0,-0.1354,-0.1368,-0.1386,-0.1411,-0.1428,-0.145,-0.1471,-0.1489,-0.1502,-0.1507,-0.1517,-0.1532,-0.1538,-0.1518,-0.153,-0.1511,-0.1534,-0.152,-0.1538,-0.1517,-0.1556,-0.1559,-0.1533,-0.1534,-0.1534,-0.1534,0,0,-0.1295,-0.1356,-0.136,-0.138,-0.1427,-0.1448,-0.146,-0.148,-0.1495,-0.1501,-0.1509,-0.1497,-0.151,-0.1507,-0.1512,-0.1504,-0.1511,-0.1509,-0.1509,-0.1556,-0.1534,-0.1414,-0.1406,-0.1496,-0.1495,-0.1495,-0.1574,0,-0.1271,-0.1303,-0.1335,-0.136,-0.1384,-0.1427,-0.144,-0.1464,-0.1483,-0.1502,-0.1499,-0.1505,-0.1501,-0.1505,-0.1497,-0.151,-0.1513,-0.1493,-0.1537,-0.1539,-0.1443,-0.1401,-0.1282,-0.1328,-0.1576,-0.1577,-0.1577,0,-0.1233,-0.1278,-0.1294,-0.1366,-0.1377,-0.1388,-0.1442,-0.1455,-0.1484,-0.1498,-0.1507,-0.1515,-0.152,-0.1503,-0.1524,-0.1515,-0.1523,-0.1527,-0.153,-0.1419,-0.142,-0.1383,-0.1324,-0.1581,-0.1581,-0.1581,-0.158,0,-0.1194,-0.1249,-0.1273,-0.1295,-0.1364,-0.1379,-0.141,-0.145,-0.1468,-0.1498,-0.1516,-0.1525,-0.1541,-0.1535,-0.1538,-0.1539,-0.1554,-0.1558,-0.1467,-0.1462,-0.1367,-0.1351,-0.156,-0.156,-0.1559,-0.1559,-0.1559,0,-0.1172,-0.1192,-0.1259,-0.1279,-0.1311,-0.1362,-0.1391,-0.1424,-0.1458,-0.1478,-0.1513,-0.1527,-0.1545,-0.1554,-0.1548,-0.1506,-0.1565,-0.1457,-0.1455,-0.136,-0.1343,-0.1562,-0.1561,-0.1562,-0.1562,-0.1561,-0.1561,0,-0.1122,-0.1163,-0.1203,-0.1275,-0.1294,-0.1316,-0.1376,-0.1391,-0.1446,-0.1471,-0.1479,-0.1538,-0.153,-0.1535,-0.154,-0.1517,-0.1487,-0.1459,-0.1359,-0.1338,-0.1414,-0.1412,-0.1381,-0.1377,-0.1373,-0.1371,-0.1368,0,-0.1095,-0.1112,-0.1189,-0.1206,-0.1236,-0.1279,-0.1297,-0.1363,-0.1381,-0.1468,-0.1468,-0.1489,-0.1458,-0.1431,-0.1365,-0.1315,-0.139,-0.1216,-0.1161,-0.1385,-0.1387,-0.139,-0.1393,-0.1071,-0.1066,-0.1062,-0.1059,0,-0.1052,-0.1079,-0.1113,-0.1151,-0.1174,-0.1213,-0.1251,-0.1258,-0.1332,-0.1358,-0.1387,-0.1368,-0.1328,-0.12,-0.1127,-0.1088,-0.1202,-0.1132,-0.1393,-0.11,-0.1088,-0.1091,-0.1105,-0.1026,-0.1029,-0.1031,-0.1033,-0.1035,-0.1006,-0.1019,-0.1056,-0.1082,-0.1107,-0.1117,-0.1101,-0.1147,-0.1153,-0.1172,-0.125,-0.1197,-0.1167,-0.095,-0.0886,-0.0844,-0.0925,-0.092,-0.0935,-0.0953,-0.0867,-0.0845,-0.0727,-0.0728,-0.073,-0.0731,-0.0732,0,-0.0943,-0.096,-0.0981,-0.1001,-0.0983,-0.1031,-0.1038,-0.0993,-0.0955,-0.1027,-0.1034,-0.0886,-0.0778,-0.0745,-0.0608,-0.0578,-0.0607,-0.0569,-0.0622,-0.0654,-0.0682,-0.0587,-0.037,-0.037,-0.0369,-0.0368,0,0,-0.091,-0.0899,-0.0912,-0.0861,-0.0864,-0.0794,-0.0767,-0.0723,-0.0732,-0.0705,-0.0702,-0.0788,-0.074,-0.058,-0.0518,-0.0431,-0.0553,-0.0404,-0.0688,-0.0784,-0.0812,-0.0866,-0.075,0,0,0,0,0]},{"header":{"parameterUnit":"m.s-1","parameterCategory":2,"la1":30.2991,"la2":30.254,"lo1":-89.0895,"lo2":-89.0444,"dy":0.0017,"dx":0.0017,"nx":28,"ny":28,"refTime":"2024-10-12T03:00:00:Z","depth":"2","parameterNumber":3,"parameterNumberName":"V-component_of_CURRENTS"},"data":[0,0,0,0,0,0,0,0,0,0,0,0,0,0,0,0,0,0,0,0,0,0,0,0,0,0,0,0,0,0,0,0,0,0,0,0,0,0,0,0,0,0,0,0,0,0,0,0,0,0,0,0,0,0,0,0,0,0,-0.0209,-0.0208,0,-0.017,-0.0169,-0.0169,-0.0126,-0.0125,-0.0124,-0.0124,0.0009,0.0012,0.0015,0,0,0,0,0,0,0,0,0,0,0,0,0,-0.0242,-0.0242,-0.0209,-0.0208,-0.0207,-0.017,-0.0169,-0.0169,-0.0126,-0.0125,-0.0124,-0.0123,0.0008,0.0011,0.0015,0,0,0,0,0,0,0,0,0,0,0,0,0,-0.0219,-0.0242,-0.0209,-0.0181,-0.0178,-0.017,-0.0169,-0.0169,-0.0126,-0.0125,-0.0124,-0.0123,0.0007,0.0011,0.0015,0.0021,0,0,0.0028,0.003,0,0,0,0,0,0,0,0,-0.022,-0.0218,-0.0186,-0.0183,-0.0179,-0.0151,-0.0132,-0.01,-0.0126,-0.0147,-0.0124,-0.0123,-0.0036,-0.0028,-0.0026,0.0027,0.0033,0.0029,0.0031,0.0033,0.0035,0,0,0,0,0,0,0,-0.0222,-0.0219,-0.0194,-0.0185,-0.0181,-0.0169,-0.0165,-0.0126,-0.0097,-0.0145,-0.0142,-0.0136,-0.0034,-0.003,-0.0022,0.0035,0.0029,0.0033,0.0035,0.0037,0.0103,0.0102,0,0,0,0,0,0,-0.0226,-0.0221,-0.0195,-0.0193,-0.0197,-0.0169,-0.0164,-0.0162,-0.0099,-0.0089,-0.0137,-0.0134,-0.0038,-0.0027,-0.0017,0.0022,0.0033,0.0037,0.004,0.0104,0.0103,0.0102,0,0,0,0,0,0,-0.0227,-0.0225,-0.0197,-0.0205,-0.02,-0.017,-0.0167,-0.0162,-0.0155,-0.0094,-0.0082,-0.0135,-0.0037,-0.0023,0.003,0.0027,0.0039,0.0043,0.0105,0.0104,0.0103,0.0082,0,0,0,0,0,0,-0.0228,-0.0225,-0.0234,-0.0205,-0.02,-0.019,-0.0168,-0.0161,-0.0153,-0.0149,-0.0088,-0.0075,-0.0035,0.0023,0.0034,0.0033,0.0047,0.0106,0.0104,0.0103,0.0084,0.008,0.0077,0,0,0,0,0,-0.023,-0.0237,-0.0234,-0.0231,-0.021,-0.019,-0.0187,-0.0162,-0.0154,-0.0152,-0.0103,-0.0077,0.002,0.0027,0.004,0.0039,0.0107,0.0105,0.0103,0.0085,0.0081,0.0077,0,0,0,0,0,0,-0.0251,-0.0232,-0.0229,-0.0229,-0.0213,-0.0182,-0.0178,-0.0168,-0.0133,-0.0124,-0.0071,-0.0054,-0.0015,0.001,0.0016,0.0048,0.006,0.0061,0.0042,0.0039,0.0035,0.0034,0.005,0,0,0,0,0,-0.0264,-0.0265,-0.0242,-0.0244,-0.0235,-0.0212,-0.0205,-0.0188,-0.0152,-0.0137,-0.0093,-0.0053,-0.0017,0.0011,0.0045,0.0075,0.0115,0.0074,0.0071,0.0068,0.0073,0.0119,0.0121,0.0096,0.0096,0.0096,0,0,-0.0276,-0.0262,-0.0266,-0.025,-0.0233,-0.0223,-0.0204,-0.019,-0.0179,-0.0126,-0.0091,-0.0058,-0.0014,0.002,0.0038,0.0047,0.01,0.0066,0.0064,0.007,0.0118,0.012,0.0123,0.0095,0.0095,0.0095,0,0,-0.0288,-0.0284,-0.0287,-0.0275,-0.0253,-0.0235,-0.0234,-0.0204,-0.0186,-0.0155,-0.0117,-0.0079,-0.0029,0.001,0.0033,0.0029,0.0078,0.0023,0.0018,0.0062,0.0065,0.0068,0.0142,0.0152,0.0026,0.0025,0.0025,0,-0.0302,-0.0302,-0.0285,-0.0278,-0.0269,-0.0242,-0.0239,-0.0219,-0.0175,-0.0157,-0.0146,-0.0074,-0.0033,0.0014,0.0012,0.0026,0.0065,0.0034,0.006,0.0064,0.0068,0.0143,0.0154,0.0024,0.0024,0.0025,0.0025,0,-0.0312,-0.0313,-0.0309,-0.0294,-0.0284,-0.0275,-0.0244,-0.0228,-0.0208,-0.0183,-0.014,-0.0085,-0.0042,-0.0034,-0.0005,0.0031,0.0057,0.005,0.0076,0.007,0.0149,0.0161,0.0023,0.0023,0.0023,0.0024,0,0,-0.0335,-0.0321,-0.032,-0.0323,-0.0292,-0.0287,-0.0263,-0.0234,-0.0221,-0.0179,-0.0153,-0.0095,-0.007,-0.0044,-0.0009,0.0032,0.0101,0.0049,0.0052,0.0134,0.0223,0.0196,0.0207,0.0096,0.0098,0.0099,0.0276,0,-0.0347,-0.0349,-0.0333,-0.0336,-0.0336,-0.0306,-0.029,-0.0261,-0.0228,-0.0194,-0.0137,-0.0102,-0.0073,-0.0055,-0.0007,0.0065,0.0128,0.0055,0.0208,0.0213,0.0198,0.0218,0.0189,0.034,0.0289,0.0291,0.0292,0,-0.0359,-0.0361,-0.0368,-0.0365,-0.0361,-0.0357,-0.0332,-0.0314,-0.0256,-0.023,-0.0178,-0.0133,-0.0056,-0.0046,0.0103,0.0053,0.014,0.0201,0.0209,0.0198,0.0207,0.0332,0.0364,0.0313,0.0312,0.031,0.0309,0,-0.0388,-0.0386,-0.0396,-0.0393,-0.0381,-0.0378,-0.0369,-0.0325,-0.0314,-0.0251,-0.0232,-0.0137,-0.0083,0.0018,0.0157,0.0127,0.0327,0.0301,0.0374,0.0376,0.0389,0.0387,0.0418,0.0417,0.0417,0.0417,0.0416,0,-0.0407,-0.0417,-0.0414,-0.0422,-0.0441,-0.0416,-0.0421,-0.0396,-0.0356,-0.0332,-0.0255,-0.0196,-0.0069,0.006,0.0169,0.0322,0.0348,0.0388,0.0414,0.038,0.0375,0.037,0.0362,0.0423,0.0422,0.042,0.0419,0,-0.0437,-0.0431,-0.0451,-0.0452,-0.0456,-0.0473,-0.0473,-0.0475,-0.0425,-0.0389,-0.0371,-0.0227,-0.0063,0.0086,0.0282,0.0343,0.0483,0.0541,0.0506,0.0521,0.0503,0.0492,0.0616,0.0617,0.0617,0.0617,0.0618,0,-0.0452,-0.0464,-0.0486,-0.051,-0.0514,-0.0534,-0.0548,-0.0518,-0.0512,-0.0392,-0.0372,-0.0201,-0.0059,0.022,0.0356,0.0545,0.0557,0.0611,0.0525,0.0508,0.0522,0.051,0.0498,0.0564,0.0564,0.0564,0.0564,0,-0.0486,-0.0492,-0.0513,-0.0564,-0.0592,-0.0623,-0.0633,-0.0636,-0.0576,-0.052,-0.0366,-0.0232,0.004,0.0241,0.0449,0.0544,0.0558,0.0607,0.0633,0.0485,0.0463,0.0474,0.0465,0.0562,0.0562,0.0562,0.0562,0.0562,-0.0513,-0.0543,-0.0574,-0.0622,-0.0661,-0.0698,-0.072,-0.0706,-0.0678,-0.0566,-0.0377,-0.0166,0.0031,0.0306,0.046,0.0572,0.0573,0.0588,0.0588,0.0588,0.0516,0.0492,0.0587,0.0587,0.0588,0.0588,0.0588,0,-0.055,-0.0583,-0.0633,-0.0692,-0.0746,-0.0746,-0.0768,-0.0771,-0.0734,-0.0569,-0.0392,-0.0155,0.0078,0.028,0.0456,0.0557,0.0544,0.0561,0.0539,0.054,0.0542,0.0466,0.0526,0.0526,0.0525,0.0525,0,0,-0.0572,-0.0627,-0.0655,-0.0751,-0.0792,-0.0843,-0.0853,-0.0833,-0.0738,-0.058,-0.041,-0.0169,0.009,0.0183,0.0339,0.0447,0.0451,0.0438,0.048,0.0437,0.0436,0.0554,0.0438,0,0,0,0,0]}],[{"header":{"parameterUnit":"m.s-1","parameterCategory":2,"la1":30.2991,"la2":30.254,"lo1":-89.0895,"lo2":-89.0444,"dy":0.0017,"dx":0.0017,"nx":28,"ny":28,"refTime":"2024-10-12T03:00:00:Z","depth":"4","parameterNumber":2,"parameterNumberName":"U-component_of_CURRENTS"},"data":[0,0,0,0,0,0,0,0,0,0,0,0,0,0,0,0,0,0,0,0,0,0,0,0,0,0,0,0,0,0,0,0,0,0,0,0,0,0,0,0,0,0,0,0,0,0,0,0,0,0,0,0,0,0,0,0,0,0,-0.0937,-0.0938,0,-0.0994,-0.0995,-0.0995,-0.1021,-0.1021,-0.1021,-0.1021,-0.1079,-0.108,-0.1082,0,0,0,0,0,0,0,0,0,0,0,0,0,-0.0858,-0.0859,-0.0937,-0.0938,-0.0939,-0.0994,-0.0995,-0.0996,-0.1021,-0.1021,-0.1021,-0.1021,-0.1078,-0.108,-0.1082,0,0,0,0,0,0,0,0,0,0,0,0,0,-0.09,-0.086,-0.0937,-0.0959,-0.0962,-0.0994,-0.0995,-0.0996,-0.1021,-0.1021,-0.1021,-0.1021,-0.1078,-0.108,-0.1082,-0.1095,0,0,-0.1089,-0.109,0,0,0,0,0,0,0,0,-0.0898,-0.0903,-0.0955,-0.0958,-0.0961,-0.1002,-0.0989,-0.103,-0.1021,-0.0997,-0.1021,-0.1021,-0.1054,-0.1058,-0.1067,-0.1098,-0.11,-0.1089,-0.1091,-0.1092,-0.1092,0,0,0,0,0,0,0,-0.0895,-0.0901,-0.0959,-0.0956,-0.0959,-0.0969,-0.0975,-0.0996,-0.1023,-0.0999,-0.1001,-0.101,-0.1055,-0.1065,-0.1069,-0.1101,-0.1089,-0.1091,-0.1093,-0.1094,-0.1178,-0.1179,0,0,0,0,0,0,-0.089,-0.0898,-0.0957,-0.096,-0.093,-0.097,-0.0977,-0.0987,-0.1023,-0.1029,-0.1009,-0.1011,-0.1061,-0.1066,-0.1071,-0.1124,-0.1092,-0.1094,-0.1095,-0.1177,-0.1178,-0.1179,0,0,0,0,0,0,-0.0888,-0.0895,-0.0954,-0.0931,-0.094,-0.0972,-0.0983,-0.0988,-0.1014,-0.1031,-0.1037,-0.1031,-0.1061,-0.1067,-0.1096,-0.1125,-0.1095,-0.1097,-0.1176,-0.1177,-0.1179,-0.1207,0,0,0,0,0,0,-0.0886,-0.0894,-0.0906,-0.0931,-0.0941,-0.0981,-0.0983,-0.099,-0.1018,-0.1021,-0.1052,-0.1056,-0.1062,-0.1092,-0.1098,-0.1127,-0.1099,-0.1175,-0.1177,-0.1178,-0.1205,-0.1209,-0.1213,0,0,0,0,0,-0.0883,-0.0899,-0.0906,-0.0914,-0.0955,-0.0982,-0.0988,-0.1009,-0.1019,-0.1032,-0.105,-0.1056,-0.1107,-0.1095,-0.1101,-0.1132,-0.1174,-0.1176,-0.1178,-0.1204,-0.1209,-0.1213,0,0,0,0,0,0,-0.0872,-0.0904,-0.0912,-0.0938,-0.0961,-0.0986,-0.1006,-0.102,-0.1045,-0.1053,-0.1065,-0.1071,-0.1109,-0.1114,-0.11,-0.116,-0.1143,-0.1147,-0.1161,-0.1165,-0.1169,-0.1162,-0.1101,0,0,0,0,0,-0.0875,-0.0896,-0.0923,-0.0944,-0.0958,-0.0985,-0.1002,-0.1018,-0.1041,-0.1053,-0.1073,-0.1096,-0.1121,-0.1136,-0.1156,-0.1188,-0.1171,-0.1213,-0.1217,-0.122,-0.1218,-0.1206,-0.1208,-0.1186,-0.1186,-0.1186,0,0,-0.0878,-0.0898,-0.0911,-0.0944,-0.0965,-0.0992,-0.0996,-0.1028,-0.1055,-0.1055,-0.1098,-0.1113,-0.1132,-0.1167,-0.1185,-0.1176,-0.1218,-0.1222,-0.1225,-0.1221,-0.1208,-0.121,-0.1212,-0.1187,-0.1187,-0.1186,0,0,-0.0889,-0.0912,-0.0932,-0.0955,-0.099,-0.1008,-0.1021,-0.1055,-0.1075,-0.1112,-0.1122,-0.1145,-0.1188,-0.12,-0.1214,-0.1251,-0.1239,-0.1268,-0.1284,-0.1273,-0.1274,-0.1275,-0.1254,-0.1252,-0.127,-0.127,-0.127,0,-0.0892,-0.0921,-0.0942,-0.0967,-0.0992,-0.1018,-0.1047,-0.1072,-0.1111,-0.1128,-0.1131,-0.1186,-0.1202,-0.1239,-0.1253,-0.1261,-0.1247,-0.1265,-0.1276,-0.1277,-0.1277,-0.1255,-0.1254,-0.1271,-0.1271,-0.1271,-0.1271,0,-0.0911,-0.0944,-0.0961,-0.1002,-0.1029,-0.106,-0.1096,-0.1125,-0.1153,-0.1173,-0.1215,-0.1229,-0.1256,-0.1273,-0.1278,-0.13,-0.1286,-0.1282,-0.1261,-0.1281,-0.1257,-0.1254,-0.1274,-0.1273,-0.1273,-0.1272,0,0,-0.0891,-0.0961,-0.0968,-0.0998,-0.1053,-0.1076,-0.1124,-0.1167,-0.1195,-0.1229,-0.1256,-0.1299,-0.1299,-0.1313,-0.1321,-0.1316,-0.1309,-0.1304,-0.1302,-0.1276,-0.1276,-0.1205,-0.1196,-0.1306,-0.1306,-0.1306,-0.1257,0,-0.0901,-0.0957,-0.0988,-0.1047,-0.1081,-0.1122,-0.1161,-0.1203,-0.1234,-0.1264,-0.1283,-0.1311,-0.1318,-0.1328,-0.1327,-0.1316,-0.1305,-0.1323,-0.1266,-0.1264,-0.1193,-0.1191,-0.1306,-0.1255,-0.1254,-0.1254,-0.1254,0,-0.0903,-0.0946,-0.1004,-0.1078,-0.1095,-0.1131,-0.1193,-0.123,-0.1274,-0.1295,-0.1319,-0.1329,-0.1343,-0.1336,-0.1319,-0.133,-0.1306,-0.129,-0.1287,-0.1208,-0.1188,-0.1232,-0.1249,-0.1249,-0.125,-0.125,-0.125,0,-0.0875,-0.0953,-0.1003,-0.103,-0.1113,-0.1145,-0.1185,-0.1238,-0.1263,-0.1306,-0.1314,-0.1338,-0.1336,-0.1322,-0.13,-0.1307,-0.1264,-0.1266,-0.1178,-0.1172,-0.1238,-0.1238,-0.1241,-0.1241,-0.1241,-0.1241,-0.1242,0,-0.0866,-0.0908,-0.0998,-0.1026,-0.1079,-0.1138,-0.1183,-0.1226,-0.1266,-0.1278,-0.132,-0.1316,-0.1331,-0.1312,-0.1295,-0.1223,-0.1257,-0.1171,-0.1152,-0.1252,-0.1254,-0.1236,-0.1236,-0.124,-0.124,-0.124,-0.1241,0,-0.0827,-0.0887,-0.0949,-0.1042,-0.1069,-0.1106,-0.1174,-0.1191,-0.1243,-0.1254,-0.1263,-0.129,-0.126,-0.1262,-0.1229,-0.1195,-0.115,-0.1116,-0.1216,-0.1205,-0.1066,-0.1069,-0.1004,-0.1001,-0.0999,-0.0997,-0.0995,0,-0.0811,-0.0842,-0.0946,-0.0973,-0.1017,-0.1075,-0.11,-0.1169,-0.1178,-0.1222,-0.1208,-0.1205,-0.121,-0.1101,-0.1123,-0.1076,-0.1067,-0.1042,-0.1061,-0.1052,-0.1041,-0.1047,-0.1053,-0.0991,-0.099,-0.0989,-0.0989,0,-0.0778,-0.0822,-0.0869,-0.0925,-0.0964,-0.1002,-0.1043,-0.104,-0.1098,-0.1154,-0.1113,-0.1094,-0.1055,-0.1033,-0.1003,-0.0976,-0.1061,-0.1016,-0.1021,-0.1038,-0.1036,-0.1028,-0.1037,-0.098,-0.0981,-0.0982,-0.0983,0,-0.0744,-0.0766,-0.0824,-0.0862,-0.0905,-0.0907,-0.0945,-0.0946,-0.0964,-0.1016,-0.0997,-0.1003,-0.1032,-0.0979,-0.0955,-0.0921,-0.0908,-0.0888,-0.09,-0.091,-0.0904,-0.0889,-0.0761,0,0,0,0,0,-0.0706,-0.0717,-0.075,-0.0783,-0.0817,-0.0834,-0.0891,-0.0925,-0.098,-0.092,-0.0957,-0.0918,-0.0879,-0.0889,-0.083,-0.0914,-0.0915,-0.0844,-0.09,-0.0932,-0.0942,-0.0946,0,0,0,0,0,0,-0.0677,-0.071,-0.0725,-0.0698,-0.0693,-0.0715,-0.0743,-0.0786,-0.0763,-0.0825,-0.0802,-0.0857,-0.0826,-0.0878,-0.0803,-0.0807,-0.0824,-0.086,-0.0857,-0.0926,-0.0935,-0.0943,-0.0951,0,0,0,0,0]},{"header":{"parameterUnit":"m.s-1","parameterCategory":2,"la1":30.2991,"la2":30.254,"lo1":-89.0895,"lo2":-89.0444,"dy":0.0017,"dx":0.0017,"nx":28,"ny":28,"refTime":"2024-10-12T03:00:00:Z","depth":"4","parameterNumber":3,"parameterNumberName":"V-component_of_CURRENTS"},"data":[0,0,0,0,0,0,0,0,0,0,0,0,0,0,0,0,0,0,0,0,0,0,0,0,0,0,0,0,0,0,0,0,0,0,0,0,0,0,0,0,0,0,0,0,0,0,0,0,0,0,0,0,0,0,0,0,0,0,-0.0209,-0.0209,0,-0.0184,-0.0184,-0.0184,-0.0161,-0.0161,-0.0161,-0.0161,-0.0107,-0.0106,-0.0105,0,0,0,0,0,0,0,0,0,0,0,0,0,-0.0224,-0.0224,-0.0209,-0.0209,-0.0209,-0.0184,-0.0184,-0.0184,-0.0161,-0.0161,-0.0161,-0.0161,-0.0108,-0.0106,-0.0105,0,0,0,0,0,0,0,0,0,0,0,0,0,-0.021,-0.0224,-0.0209,-0.0195,-0.0194,-0.0184,-0.0184,-0.0183,-0.0161,-0.0161,-0.0161,-0.016,-0.0108,-0.0106,-0.0105,-0.0099,0,0,-0.0099,-0.0098,0,0,0,0,0,0,0,0,-0.0211,-0.0209,-0.0197,-0.0196,-0.0194,-0.0176,-0.017,-0.0154,-0.0161,-0.0173,-0.0161,-0.016,-0.0128,-0.0125,-0.012,-0.0097,-0.0094,-0.0099,-0.0098,-0.0097,-0.0096,0,0,0,0,0,0,0,-0.0212,-0.021,-0.0198,-0.0197,-0.0195,-0.0186,-0.0183,-0.0167,-0.0151,-0.0172,-0.017,-0.0169,-0.0127,-0.0122,-0.0119,-0.0093,-0.0099,-0.0097,-0.0096,-0.0095,-0.0042,-0.0042,0,0,0,0,0,0,-0.0217,-0.0211,-0.0199,-0.0198,-0.0203,-0.0186,-0.0183,-0.0182,-0.0152,-0.0148,-0.0169,-0.0168,-0.0125,-0.0121,-0.0117,-0.0089,-0.0097,-0.0095,-0.0094,-0.0042,-0.0042,-0.0041,0,0,0,0,0,0,-0.0218,-0.0216,-0.02,-0.0204,-0.0202,-0.0186,-0.0185,-0.0181,-0.0179,-0.0151,-0.0146,-0.017,-0.0125,-0.0119,-0.0102,-0.0087,-0.0094,-0.0093,-0.0043,-0.0042,-0.0042,-0.0046,0,0,0,0,0,0,-0.0218,-0.0217,-0.0222,-0.0205,-0.0202,-0.0197,-0.0185,-0.0181,-0.0179,-0.0177,-0.015,-0.0145,-0.0124,-0.0105,-0.01,-0.0085,-0.0091,-0.0043,-0.0042,-0.0042,-0.0046,-0.0046,-0.0045,0,0,0,0,0,-0.0219,-0.0225,-0.0223,-0.0221,-0.0208,-0.0198,-0.0195,-0.0182,-0.0179,-0.0179,-0.0159,-0.0146,-0.0097,-0.0103,-0.0098,-0.0082,-0.0043,-0.0042,-0.0042,-0.0046,-0.0046,-0.0045,0,0,0,0,0,0,-0.0234,-0.0223,-0.022,-0.0223,-0.0213,-0.0194,-0.0195,-0.0188,-0.0173,-0.0171,-0.0145,-0.0139,-0.0115,-0.0103,-0.011,-0.0065,-0.0066,-0.0065,-0.0072,-0.0071,-0.007,-0.0067,-0.009,0,0,0,0,0,-0.0242,-0.0244,-0.023,-0.0233,-0.0229,-0.0214,-0.0211,-0.0202,-0.0185,-0.0179,-0.0159,-0.0135,-0.0108,-0.0094,-0.0072,-0.0053,-0.0032,-0.0038,-0.0038,-0.0038,-0.0032,0.0014,0.0019,-0.0039,-0.0039,-0.0039,0,0,-0.025,-0.0243,-0.0246,-0.0237,-0.0228,-0.022,-0.0211,-0.0206,-0.0194,-0.0175,-0.0155,-0.0135,-0.0103,-0.0076,-0.0064,-0.0064,-0.0012,-0.0037,-0.0037,-0.0031,0.0015,0.0021,0.0026,-0.0039,-0.0039,-0.0039,0,0,-0.026,-0.026,-0.0262,-0.0254,-0.0244,-0.0231,-0.0232,-0.0215,-0.0202,-0.0185,-0.0161,-0.0132,-0.0104,-0.0068,-0.0048,-0.0033,-0.0013,-0.0031,-0.0023,0.0021,0.0026,0.0031,0.0055,0.0062,-0.003,-0.003,-0.003,0,-0.0269,-0.0269,-0.0261,-0.0257,-0.0251,-0.0237,-0.0233,-0.0217,-0.0195,-0.0179,-0.018,-0.0118,-0.0094,-0.0043,-0.0035,-0.003,-0.0013,-0.0028,0.0022,0.0028,0.0033,0.0056,0.0064,-0.003,-0.003,-0.003,-0.003,0,-0.0275,-0.0276,-0.0276,-0.0264,-0.0257,-0.0253,-0.023,-0.0218,-0.0205,-0.0183,-0.0141,-0.0105,-0.0067,-0.0052,-0.0039,0.0014,0.001,0.0016,0.0021,0.0039,0.0061,0.007,-0.003,-0.003,-0.003,-0.003,0,0,-0.0289,-0.0282,-0.0282,-0.0282,-0.0262,-0.0258,-0.0234,-0.0206,-0.0192,-0.0159,-0.013,-0.0073,-0.0056,-0.0032,-0.0006,0.0035,0.0084,0.0037,0.004,0.0061,0.0166,0.015,0.0157,0.0097,0.0098,0.01,0.0163,0,-0.0294,-0.0296,-0.0285,-0.0284,-0.0284,-0.0261,-0.0243,-0.0215,-0.0188,-0.0158,-0.0103,-0.0072,-0.0047,-0.0035,0.0016,0.0064,0.0108,0.0065,0.0146,0.0148,0.0132,0.0168,0.0105,0.0169,0.0171,0.0173,0.0174,0,-0.0301,-0.0303,-0.0306,-0.03,-0.0297,-0.0293,-0.0266,-0.0248,-0.0194,-0.0172,-0.012,-0.0085,-0.0015,-0.0007,0.0104,0.0072,0.0121,0.0161,0.0164,0.0159,0.0149,0.0151,0.0189,0.0188,0.0187,0.0186,0.0185,0,-0.0321,-0.0317,-0.0324,-0.0322,-0.0309,-0.0305,-0.0296,-0.0254,-0.0243,-0.0184,-0.0172,-0.0081,-0.0052,0.0037,0.0121,0.0112,0.0234,0.0232,0.0268,0.0267,0.0263,0.0257,0.0319,0.0319,0.0318,0.0318,0.0318,0,-0.033,-0.0338,-0.034,-0.0346,-0.0359,-0.0335,-0.0338,-0.0312,-0.0278,-0.0265,-0.0188,-0.0157,-0.004,0.004,0.0123,0.0221,0.0241,0.0281,0.0291,0.0256,0.0249,0.0268,0.0261,0.0321,0.032,0.032,0.0319,0,-0.0351,-0.035,-0.0366,-0.0367,-0.0372,-0.0384,-0.0388,-0.0388,-0.0346,-0.0327,-0.0313,-0.0214,-0.0102,0.0017,0.0157,0.021,0.0313,0.0344,0.0291,0.0295,0.0313,0.0306,0.039,0.039,0.039,0.039,0.0391,0,-0.036,-0.0371,-0.0396,-0.0419,-0.0425,-0.0443,-0.0459,-0.043,-0.0428,-0.036,-0.0353,-0.0243,-0.0165,0.0026,0.015,0.0315,0.0334,0.0371,0.0357,0.0324,0.0326,0.0318,0.031,0.0391,0.0391,0.0391,0.0391,0,-0.0382,-0.0395,-0.0413,-0.0464,-0.0495,-0.0523,-0.0538,-0.0539,-0.0498,-0.0465,-0.0376,-0.0263,-0.0136,0.0022,0.015,0.0267,0.0339,0.0373,0.0373,0.036,0.0326,0.0325,0.0318,0.0391,0.0391,0.0391,0.0391,0,-0.0405,-0.043,-0.0463,-0.0505,-0.0553,-0.0588,-0.0588,-0.0569,-0.0553,-0.0465,-0.0436,-0.0277,-0.018,-0.0003,0.0119,0.0233,0.0255,0.0268,0.0275,0.0275,0.0223,0.0161,0.0197,0,0,0,0,0,-0.0423,-0.0457,-0.0503,-0.0553,-0.0602,-0.0625,-0.0635,-0.0622,-0.058,-0.0526,-0.0475,-0.0346,-0.0146,-0.005,0.0062,0.0107,0.026,0.0238,0.0274,0.0394,0.0394,0.0351,0,0,0,0,0,0,-0.044,-0.0485,-0.0508,-0.0585,-0.0626,-0.0677,-0.0683,-0.0652,-0.0606,-0.0541,-0.0424,-0.0347,-0.0143,-0.0211,0.0056,0.0093,0.0123,0.0343,0.0345,0.0394,0.0394,0.0393,0.0349,0,0,0,0,0]}]]